TimeCST,TemperatureF,Dew PointF,Humidity,Sea Level PressureIn,VisibilityMPH,Wind Direction,Wind SpeedMPH,Gust SpeedMPH,PrecipitationIn,Events,Conditions,WindDirDegrees,DateUTC
12:52 AM,37.0,34.0,89,30.08,10.0,East,10.4,-,0.00,,Overcast,90,2012-12-09 06:52:00
1:30 AM,35.6,33.8,93,30.05,5.0,ENE,11.5,-,0.02,Rain,Light Rain,70,2012-12-09 07:30:00
1:52 AM,36.0,34.0,93,30.07,8.0,East,10.4,-,0.02,,Overcast,80,2012-12-09 07:52:00
2:32 AM,35.6,33.8,93,30.05,7.0,East,10.4,-,N/A,,Overcast,100,2012-12-09 08:32:00
2:52 AM,35.1,34.0,96,30.06,7.0,East,10.4,-,N/A,,Overcast,100,2012-12-09 08:52:00
3:28 AM,35.6,33.8,93,30.02,7.0,East,11.5,-,N/A,,Overcast,90,2012-12-09 09:28:00
3:52 AM,36.0,33.1,89,30.02,7.0,East,11.5,-,N/A,,Overcast,90,2012-12-09 09:52:00
4:52 AM,35.1,32.0,89,30.00,8.0,East,9.2,-,N/A,,Overcast,100,2012-12-09 10:52:00
5:48 AM,35.6,32.0,87,29.98,8.0,East,11.5,-,N/A,,Overcast,100,2012-12-09 11:48:00
5:52 AM,35.1,32.0,89,29.99,8.0,East,10.4,-,N/A,,Overcast,100,2012-12-09 11:52:00
6:52 AM,36.0,33.1,89,29.97,7.0,East,11.5,-,N/A,,Overcast,100,2012-12-09 12:52:00
7:52 AM,36.0,33.1,89,29.94,5.0,East,9.2,-,N/A,,Overcast,80,2012-12-09 13:52:00
7:59 AM,35.6,33.8,93,29.92,5.0,East,10.4,-,N/A,,Overcast,90,2012-12-09 13:59:00
8:49 AM,37.4,33.8,87,29.90,5.0,East,11.5,-,N/A,,Overcast,90,2012-12-09 14:49:00
8:52 AM,37.0,34.0,89,29.91,5.0,East,11.5,-,N/A,,Overcast,90,2012-12-09 14:52:00
9:52 AM,37.0,35.1,93,29.89,3.0,East,10.4,-,0.02,Rain,Light Rain,80,2012-12-09 15:52:00
10:52 AM,37.9,36.0,93,29.89,4.0,Variable,4.6,-,0.00,Rain,Light Rain,0,2012-12-09 16:52:00
11:00 AM,37.4,35.6,93,29.86,1.8,NE,5.8,-,0.01,Rain,Light Rain,40,2012-12-09 17:00:00
11:44 AM,37.4,37.4,100,29.82,2.0,East,8.1,-,0.04,,Overcast,80,2012-12-09 17:44:00
12:52 PM,39.0,37.9,96,29.78,1.5,ENE,8.1,-,N/A,,Overcast,60,2012-12-09 18:52:00
1:52 PM,39.0,39.0,100,29.78,1.2,East,4.6,-,0.01,,Overcast,100,2012-12-09 19:52:00
2:37 PM,39.2,39.2,100,29.76,2.0,Calm,Calm,-,N/A,,Overcast,0,2012-12-09 20:37:00
2:52 PM,39.9,39.0,97,29.77,2.5,ESE,4.6,-,N/A,,Overcast,120,2012-12-09 20:52:00
3:52 PM,39.9,39.0,97,29.76,2.0,Calm,Calm,-,N/A,,Overcast,0,2012-12-09 21:52:00
4:52 PM,39.9,39.9,100,29.76,2.0,Calm,Calm,-,N/A,,Overcast,0,2012-12-09 22:52:00
5:52 PM,39.9,39.0,97,29.76,2.0,WSW,8.1,-,N/A,,Overcast,240,2012-12-09 23:52:00
5:55 PM,39.2,39.2,100,29.74,6.0,WSW,9.2,-,N/A,,Overcast,240,2012-12-09 23:55:00
6:05 PM,39.2,39.2,100,29.74,6.0,WSW,8.1,-,N/A,,Overcast,240,2012-12-10 00:05:00
6:52 PM,39.9,37.9,93,29.75,9.0,West,13.8,20.7,N/A,,Overcast,270,2012-12-10 00:52:00
7:19 PM,39.2,37.4,93,29.73,10.0,West,17.3,-,N/A,,Overcast,270,2012-12-10 01:19:00
7:52 PM,39.0,36.0,89,29.75,10.0,West,16.1,-,N/A,,Overcast,270,2012-12-10 01:52:00
8:52 PM,37.9,35.1,89,29.75,10.0,West,9.2,-,N/A,,Overcast,270,2012-12-10 02:52:00
9:21 PM,37.4,33.8,87,29.73,10.0,West,13.8,-,N/A,,Overcast,270,2012-12-10 03:21:00
9:39 PM,37.4,35.6,93,29.73,10.0,West,13.8,-,N/A,,Overcast,260,2012-12-10 03:39:00
9:52 PM,37.9,35.1,89,29.75,10.0,West,13.8,-,N/A,,Overcast,270,2012-12-10 03:52:00
10:52 PM,37.0,34.0,89,29.75,10.0,West,19.6,-,0.00,,Overcast,280,2012-12-10 04:52:00
11:37 PM,37.4,33.8,87,29.74,10.0,West,13.8,-,N/A,,Overcast,280,2012-12-10 05:37:00
11:52 PM,37.0,34.0,89,29.75,9.0,West,15.0,-,N/A,,Overcast,280,2012-12-10 05:52:00